Location: Mentone
(34.5413°N, 85.5351°W)
Time: 04:04:15
(UTC-05:00)

Cosmos 2026 Rocket - Visible Passes

Search period start: 30 July 2014 00:00
Search period end: 09 August 2014 00:00
Orbit: 939 x 1003 km, 82.9° (Epoch: 28 July)

Date Brightness Start Highest point End Pass type
(mag) Time Alt. Az. Time Alt. Az. Time Alt. Az.
30 Jul 4.1 04:50:57 10° S 04:57:15 85° E 05:03:28 10° N visible
31 Jul 6.3 03:32:21 10° SE 03:36:34 19° E 03:40:44 10° NE visible
31 Jul 4.2 05:15:13 10° SSW 05:21:19 52° W 05:27:22 10° N visible
01 Aug 5.4 03:54:42 10° SSE 04:00:18 36° E 04:05:51 10° NNE visible
02 Aug 4.3 04:17:59 10° S 04:24:11 67° E 04:30:19 10° NNE visible
03 Aug 6.5 03:00:29 10° ESE 03:03:38 14° E 03:06:46 10° NE visible
03 Aug 4.0 04:41:59 10° SSW 04:48:12 67° W 04:54:21 10° N visible
04 Aug 5.7 03:22:10 10° SE 03:27:19 28° E 03:32:25 10° NNE visible
04 Aug 4.6 05:06:41 10° SW 05:12:22 36° WNW 05:17:59 10° NNW visible
05 Aug 4.7 03:46:15 16° SSE 03:51:08 52° E 03:57:05 10° NNE visible
06 Aug 6.6 02:29:42 10° E 02:30:44 10° E 02:31:46 10° ENE visible
06 Aug 3.9 04:10:48 22° S 04:15:06 85° W 04:21:17 10° N visible
07 Aug 6.0 02:50:43 13° SE 02:54:21 21° E 02:58:49 10° NE visible
07 Aug 4.3 04:35:19 21° SW 04:39:12 46° W 04:45:05 10° N visible
08 Aug 5.0 03:15:11 25° SE 03:18:07 40° E 03:23:46 10° NNE visible
08 Aug 5.1 04:59:47 15° WSW 05:03:27 25° WNW 05:08:24 10° NNW visible
